Wetterdaten: aktuell Donnerstag, 09.02.2023 03:31
Datum Zeit Temp. I. Temp. A. Temp. WC Feuchte I. Feuchte A. Luftdruck Regen Wind Richtung Richtung Taupunkt Windchill Windben Empfang
09.02.2023 03:31 1,2 C -5,7 C 1,7 C 56 % 78 % 1035,1 hPa 0,0 l/m 1,6 km/h (1 Bft) NW 315 -8,9 C -5,7 C 3,2 km/h (1 Bft) 95,65 %
09.02.2023 03:30 1,2 C -5,7 C 1,7 C 56 % 78 % 1035,2 hPa 0,0 l/m 0,0 km/h (0 Bft) NW 315 -8,9 C -5,7 C 1,6 km/h (1 Bft) 91,30 %
09.02.2023 03:29 1,2 C -5,6 C 1,7 C 56 % 78 % 1035,2 hPa 0,0 l/m 1,6 km/h (1 Bft) N-NW 337 -8,8 C -5,6 C 4,8 km/h (1 Bft) 91,30 %
09.02.2023 03:28 1,2 C -5,6 C 1,7 C 56 % 79 % 1035,2 hPa 0,0 l/m 4,8 km/h (1 Bft) NW 315 -8,6 C -5,6 C 6,4 km/h (2 Bft) 100,00 %
09.02.2023 03:27 1,2 C -5,6 C 1,7 C 56 % 79 % 1035,3 hPa 0,0 l/m 3,2 km/h (1 Bft) W-NW 292 -8,6 C -5,6 C 4,8 km/h (1 Bft) 91,30 %
09.02.2023 03:26 1,2 C -5,6 C 1,7 C 56 % 79 % 1035,4 hPa 0,0 l/m 4,8 km/h (1 Bft) W 270 -8,6 C -5,6 C 4,8 km/h (1 Bft) 26,09 %
09.02.2023 03:25 1,2 C -5,6 C 1,7 C 56 % 79 % 1035,2 hPa 0,0 l/m 3,2 km/h (1 Bft) NW 315 -8,6 C -5,6 C 3,2 km/h (1 Bft) 34,78 %
09.02.2023 03:24 1,2 C -5,6 C 1,7 C 56 % 79 % 1035,3 hPa 0,0 l/m 3,2 km/h (1 Bft) NW 315 -8,6 C -5,6 C 4,8 km/h (1 Bft) 95,65 %
09.02.2023 03:23 1,2 C -5,6 C 1,7 C 56 % 79 % 1035,2 hPa 0,0 l/m 1,6 km/h (1 Bft) NW 315 -8,6 C -5,6 C 3,2 km/h (1 Bft) 91,30 %
09.02.2023 03:22 1,2 C -5,6 C 1,7 C 56 % 79 % 1035,3 hPa 0,0 l/m 1,6 km/h (1 Bft) W-NW 292 -8,6 C -5,6 C 3,2 km/h (1 Bft) 95,65 %
09.02.2023 03:21 1,2 C -5,6 C 1,7 C 56 % 79 % 1035,4 hPa 0,0 l/m 3,2 km/h (1 Bft) W 270 -8,6 C -5,6 C 4,8 km/h (1 Bft) 95,65 %
09.02.2023 03:20 1,2 C -5,6 C 1,7 C 56 % 79 % 1035,3 hPa 0,0 l/m 3,2 km/h (1 Bft) W 270 -8,6 C -5,6 C 4,8 km/h (1 Bft) 91,30 %
09.02.2023 03:19 1,2 C -5,6 C 1,7 C 56 % 79 % 1035,3 hPa 0,0 l/m 1,6 km/h (1 Bft) W 270 -8,6 C -5,6 C 3,2 km/h (1 Bft) 100,00 %
09.02.2023 03:18 1,2 C -5,6 C 1,7 C 56 % 79 % 1035,1 hPa 0,0 l/m 0,0 km/h (0 Bft) W 270 -8,6 C -5,6 C 1,6 km/h (1 Bft) 91,30 %
09.02.2023 03:17 1,2 C -5,6 C 1,7 C 56 % 79 % 1035,2 hPa 0,0 l/m 0,0 km/h (0 Bft) W 270 -8,6 C -5,6 C 1,6 km/h (1 Bft) 95,65 %
09.02.2023 03:16 1,2 C -5,6 C 1,7 C 56 % 78 % 1035,2 hPa 0,0 l/m 0,0 km/h (0 Bft) W 270 -8,8 C -5,6 C 1,6 km/h (1 Bft) 95,65 %
09.02.2023 03:15 1,2 C -5,7 C 1,7 C 56 % 79 % 1035,4 hPa 0,0 l/m 0,0 km/h (0 Bft) W 270 -8,7 C -5,7 C 1,6 km/h (1 Bft) 95,65 %
09.02.2023 03:14 1,2 C -5,7 C 1,7 C 56 % 78 % 1035,5 hPa 0,0 l/m 1,6 km/h (1 Bft) W 270 -8,9 C -5,7 C 3,2 km/h (1 Bft) 86,96 %
09.02.2023 03:13 1,2 C -5,7 C 1,7 C 56 % 79 % 1035,4 hPa 0,0 l/m 1,6 km/h (1 Bft) W 270 -8,7 C -5,7 C 3,2 km/h (1 Bft) 95,65 %
09.02.2023 03:12 1,2 C -5,7 C 1,7 C 56 % 78 % 1035,3 hPa 0,0 l/m 0,0 km/h (0 Bft) NW 315 -8,9 C -5,7 C 1,6 km/h (1 Bft) 91,30 %
09.02.2023 03:11 1,2 C -5,7 C 1,7 C 56 % 78 % 1035,5 hPa 0,0 l/m 1,6 km/h (1 Bft) W-NW 292 -8,9 C -5,7 C 3,2 km/h (1 Bft) 91,30 %
09.02.2023 03:10 1,2 C -5,7 C 1,7 C 56 % 78 % 1035,5 hPa 0,0 l/m 1,6 km/h (1 Bft) W-NW 292 -8,9 C -5,7 C 3,2 km/h (1 Bft) 100,00 %
09.02.2023 03:09 1,3 C -5,8 C 1,7 C 56 % 78 % 1035,6 hPa 0,0 l/m 1,6 km/h (1 Bft) W-NW 292 -9,0 C -5,8 C 3,2 km/h (1 Bft) 91,30 %
09.02.2023 03:08 1,3 C -5,8 C 1,7 C 56 % 78 % 1035,5 hPa 0,0 l/m 1,6 km/h (1 Bft) NW 315 -9,0 C -5,8 C 3,2 km/h (1 Bft) 95,65 %
09.02.2023 03:07 1,3 C -5,8 C 1,7 C 56 % 78 % 1035,5 hPa 0,0 l/m 1,6 km/h (1 Bft) NW 315 -9,0 C -5,8 C 3,2 km/h (1 Bft) 95,65 %
09.02.2023 03:06 1,3 C -5,8 C 1,7 C 56 % 78 % 1035,6 hPa 0,0 l/m 1,6 km/h (1 Bft) NW 315 -9,0 C -5,8 C 1,6 km/h (1 Bft) 95,65 %
09.02.2023 03:05 1,3 C -5,8 C 1,7 C 56 % 79 % 1035,5 hPa 0,0 l/m 1,6 km/h (1 Bft) NW 315 -8,8 C -5,8 C 1,6 km/h (1 Bft) 91,30 %
09.02.2023 03:04 1,3 C -5,8 C 1,7 C 56 % 79 % 1035,5 hPa 0,0 l/m 3,2 km/h (1 Bft) N-NW 337 -8,8 C -5,8 C 3,2 km/h (1 Bft) 100,00 %
09.02.2023 03:03 1,3 C -5,9 C 1,7 C 56 % 79 % 1035,7 hPa 0,0 l/m 1,6 km/h (1 Bft) NW 315 -8,9 C -5,9 C 3,2 km/h (1 Bft) 91,30 %
09.02.2023 03:02 1,3 C -5,9 C 1,7 C 56 % 79 % 1035,7 hPa 0,0 l/m 0,0 km/h (0 Bft) NW 315 -8,9 C -5,9 C 1,6 km/h (1 Bft) 95,65 %
09.02.2023 03:01 1,3 C -5,9 C 1,7 C 56 % 79 % 1035,6 hPa 0,0 l/m 1,6 km/h (1 Bft) W-NW 292 -8,9 C -5,9 C 3,2 km/h (1 Bft) 91,30 %
09.02.2023 03:00 1,3 C -5,9 C 1,7 C 56 % 79 % 1035,7 hPa 0,0 l/m 1,6 km/h (1 Bft) W 270 -8,9 C -5,9 C 1,6 km/h (1 Bft) 91,30 %
09.02.2023 02:59 1,3 C -5,9 C 1,7 C 56 % 79 % 1035,8 hPa 0,0 l/m 1,6 km/h (1 Bft) W 270 -8,9 C -5,9 C 3,2 km/h (1 Bft) 95,65 %
09.02.2023 02:58 1,3 C -5,9 C 1,7 C 56 % 80 % 1035,8 hPa 0,0 l/m 3,2 km/h (1 Bft) W 270 -8,8 C -5,9 C 3,2 km/h (1 Bft) 91,30 %
09.02.2023 02:57 1,3 C -6,0 C 1,7 C 56 % 80 % 1035,7 hPa 0,0 l/m 3,2 km/h (1 Bft) W-NW 292 -8,9 C -6,0 C 4,8 km/h (1 Bft) 91,30 %
09.02.2023 02:56 1,3 C -6,0 C 1,7 C 56 % 80 % 1035,7 hPa 0,0 l/m 1,6 km/h (1 Bft) N 360 -8,9 C -6,0 C 3,2 km/h (1 Bft) 91,30 %
09.02.2023 02:55 1,3 C -6,0 C 1,7 C 56 % 80 % 1035,8 hPa 0,0 l/m 0,0 km/h (0 Bft) W-NW 292 -8,9 C -6,0 C 3,2 km/h (1 Bft) 86,96 %
09.02.2023 02:54 1,3 C -6,1 C 1,7 C 57 % 80 % 1035,7 hPa 0,0 l/m 1,6 km/h (1 Bft) W-NW 292 -9,0 C -6,1 C 3,2 km/h (1 Bft) 95,65 %
09.02.2023 02:53 1,3 C -6,1 C 1,7 C 57 % 80 % 1035,8 hPa 0,0 l/m 1,6 km/h (1 Bft) W-NW 292 -9,0 C -6,1 C 3,2 km/h (1 Bft) 95,65 %
09.02.2023 02:52 1,3 C -6,0 C 1,7 C 56 % 79 % 1035,7 hPa 0,0 l/m 1,6 km/h (1 Bft) NW 315 -9,0 C -6,0 C 3,2 km/h (1 Bft) 82,61 %
09.02.2023 02:51 1,3 C -6,0 C 1,7 C 57 % 79 % 1035,8 hPa 0,0 l/m 3,2 km/h (1 Bft) NW 315 -9,0 C -6,0 C 4,8 km/h (1 Bft) 100,00 %
09.02.2023 02:50 1,3 C -5,9 C 1,7 C 57 % 79 % 1035,8 hPa 0,0 l/m 3,2 km/h (1 Bft) W-NW 292 -8,9 C -5,9 C 4,8 km/h (1 Bft) 91,30 %
09.02.2023 02:49 1,3 C -5,9 C 1,7 C 57 % 79 % 1035,8 hPa 0,0 l/m 0,0 km/h (0 Bft) NW 315 -8,9 C -5,9 C 3,2 km/h (1 Bft) 91,30 %
09.02.2023 02:48 1,3 C -5,9 C 1,7 C 57 % 78 % 1035,7 hPa 0,0 l/m 0,0 km/h (0 Bft) NW 315 -9,1 C -5,9 C 1,6 km/h (1 Bft) 100,00 %
09.02.2023 02:47 1,3 C -5,9 C 1,7 C 57 % 78 % 1035,8 hPa 0,0 l/m 3,2 km/h (1 Bft) NW 315 -9,1 C -5,9 C 3,2 km/h (1 Bft) 91,30 %
09.02.2023 02:46 1,3 C -5,9 C 1,7 C 57 % 78 % 1035,8 hPa 0,0 l/m 3,2 km/h (1 Bft) NW 315 -9,1 C -5,9 C 4,8 km/h (1 Bft) 91,30 %
09.02.2023 02:45 1,3 C -5,9 C 1,7 C 57 % 78 % 1035,8 hPa 0,0 l/m 1,6 km/h (1 Bft) NW 315 -9,1 C -5,9 C 4,8 km/h (1 Bft) 95,65 %
09.02.2023 02:44 1,3 C -5,8 C 1,7 C 57 % 78 % 1036,0 hPa 0,0 l/m 4,8 km/h (1 Bft) NW 315 -9,0 C -5,8 C 4,8 km/h (1 Bft) 91,30 %
09.02.2023 02:43 1,3 C -5,8 C 1,7 C 57 % 78 % 1035,9 hPa 0,0 l/m 3,2 km/h (1 Bft) NW 315 -9,0 C -5,8 C 4,8 km/h (1 Bft) 91,30 %
09.02.2023 02:42 1,3 C -5,8 C 1,7 C 57 % 78 % 1036,0 hPa 0,0 l/m 4,8 km/h (1 Bft) NW 315 -9,0 C -5,8 C 4,8 km/h (1 Bft) 100,00 %
09.02.2023 02:41 1,4 C -5,8 C 1,7 C 57 % 78 % 1035,9 hPa 0,0 l/m 3,2 km/h (1 Bft) NW 315 -9,0 C -5,8 C 4,8 km/h (1 Bft) 91,30 %
09.02.2023 02:40 1,4 C -5,8 C 1,7 C 57 % 78 % 1036,0 hPa 0,0 l/m 1,6 km/h (1 Bft) W-NW 292 -9,0 C -5,8 C 3,2 km/h (1 Bft) 95,65 %
09.02.2023 02:39 1,4 C -5,8 C 1,7 C 57 % 78 % 1035,8 hPa 0,0 l/m 1,6 km/h (1 Bft) W-NW 292 -9,0 C -5,8 C 3,2 km/h (1 Bft) 91,30 %
09.02.2023 02:38 1,4 C -5,8 C 1,7 C 57 % 78 % 1035,9 hPa 0,0 l/m 1,6 km/h (1 Bft) NW 315 -9,0 C -5,8 C 1,6 km/h (1 Bft) 91,30 %
09.02.2023 02:37 1,4 C -5,7 C 1,7 C 57 % 78 % 1036,0 hPa 0,0 l/m 3,2 km/h (1 Bft) NW 315 -8,9 C -5,7 C 3,2 km/h (1 Bft) 86,96 %
09.02.2023 02:36 1,4 C -5,8 C 2,2 C 57 % 78 % 1036,0 hPa 0,0 l/m 1,6 km/h (1 Bft) W-NW 292 -9,0 C -5,8 C 3,2 km/h (1 Bft) 95,65 %
09.02.2023 02:35 1,4 C -5,8 C 2,2 C 57 % 78 % 1036,1 hPa 0,0 l/m 1,6 km/h (1 Bft) W-NW 292 -9,0 C -5,8 C 3,2 km/h (1 Bft) 86,96 %
09.02.2023 02:34 1,4 C -5,8 C 2,2 C 57 % 78 % 1036,1 hPa 0,0 l/m 1,6 km/h (1 Bft) W-NW 292 -9,0 C -5,8 C 1,6 km/h (1 Bft) 91,30 %
09.02.2023 02:33 1,4 C -5,8 C 1,7 C 57 % 77 % 1035,9 hPa 0,0 l/m 1,6 km/h (1 Bft) W-NW 292 -9,2 C -5,8 C 3,2 km/h (1 Bft) 91,30 %
09.02.2023 02:32 1,4 C -5,8 C 1,7 C 57 % 77 % 1036,0 hPa 0,0 l/m 1,6 km/h (1 Bft) W-NW 292 -9,2 C -5,8 C 1,6 km/h (1 Bft) 86,96 %
09.02.2023 02:31 1,4 C -5,7 C 1,7 C 57 % 77 % 1036,1 hPa 0,0 l/m 1,6 km/h (1 Bft) W-NW 292 -9,1 C -5,7 C 3,2 km/h (1 Bft) 95,65 %
09.02.2023 02:30 1,4 C -5,7 C 1,7 C 57 % 77 % 1036,1 hPa 0,0 l/m 3,2 km/h (1 Bft) W-NW 292 -9,1 C -5,7 C 3,2 km/h (1 Bft) 86,96 %
09.02.2023 02:29 1,4 C -5,7 C 2,2 C 57 % 77 % 1036,2 hPa 0,0 l/m 3,2 km/h (1 Bft) W-NW 292 -9,1 C -5,7 C 3,2 km/h (1 Bft) 95,65 %
09.02.2023 02:28 1,4 C -5,7 C 2,2 C 57 % 77 % 1036,0 hPa 0,0 l/m 3,2 km/h (1 Bft) W-NW 292 -9,1 C -5,7 C 3,2 km/h (1 Bft) 86,96 %
09.02.2023 02:27 1,4 C -5,6 C 2,2 C 57 % 77 % 1036,1 hPa 0,0 l/m 3,2 km/h (1 Bft) W-NW 292 -9,0 C -5,6 C 4,8 km/h (1 Bft) 95,65 %
09.02.2023 02:26 1,4 C -5,6 C 2,2 C 57 % 77 % 1036,2 hPa 0,0 l/m 3,2 km/h (1 Bft) W 270 -9,0 C -5,6 C 3,2 km/h (1 Bft) 86,96 %
09.02.2023 02:25 1,4 C -5,6 C 2,2 C 57 % 77 % 1036,3 hPa 0,0 l/m 3,2 km/h (1 Bft) W 270 -9,0 C -5,6 C 4,8 km/h (1 Bft) 91,30 %
09.02.2023 02:24 1,4 C -5,5 C 2,2 C 57 % 77 % 1036,2 hPa 0,0 l/m 3,2 km/h (1 Bft) W-NW 292 -8,9 C -5,5 C 4,8 km/h (1 Bft) 91,30 %
09.02.2023 02:23 1,4 C -5,4 C 2,2 C 57 % 77 % 1036,2 hPa 0,0 l/m 1,6 km/h (1 Bft) NW 315 -8,8 C -5,4 C 3,2 km/h (1 Bft) 91,30 %
09.02.2023 02:22 1,4 C -5,4 C 2,2 C 57 % 78 % 1036,2 hPa 0,0 l/m 1,6 km/h (1 Bft) NW 315 -8,6 C -5,4 C 3,2 km/h (1 Bft) 91,30 %
09.02.2023 02:21 1,4 C -5,4 C 2,2 C 57 % 77 % 1036,2 hPa 0,0 l/m 3,2 km/h (1 Bft) NW 315 -8,8 C -5,4 C 4,8 km/h (1 Bft) 91,30 %
09.02.2023 02:20 1,4 C -5,3 C 2,2 C 57 % 77 % 1036,3 hPa 0,0 l/m 3,2 km/h (1 Bft) NW 315 -8,7 C -5,3 C 4,8 km/h (1 Bft) 91,30 %
09.02.2023 02:19 1,4 C -5,3 C 2,2 C 57 % 77 % 1036,3 hPa 0,0 l/m 1,6 km/h (1 Bft) NW 315 -8,7 C -5,3 C 3,2 km/h (1 Bft) 86,96 %
09.02.2023 02:18 1,4 C -5,3 C 2,2 C 57 % 77 % 1036,3 hPa 0,0 l/m 1,6 km/h (1 Bft) NW 315 -8,7 C -5,3 C 3,2 km/h (1 Bft) 95,65 %
09.02.2023 02:17 1,4 C -5,3 C 2,2 C 57 % 77 % 1036,3 hPa 0,0 l/m 4,8 km/h (1 Bft) NW 315 -8,7 C -5,3 C 6,4 km/h (2 Bft) 91,30 %
09.02.2023 02:16 1,4 C -5,3 C 2,2 C 57 % 76 % 1036,3 hPa 0,0 l/m 3,2 km/h (1 Bft) NW 315 -8,8 C -5,3 C 4,8 km/h (1 Bft) 91,30 %
09.02.2023 02:15 1,4 C -5,3 C 2,2 C 57 % 76 % 1036,3 hPa 0,0 l/m 1,6 km/h (1 Bft) NW 315 -8,8 C -5,3 C 3,2 km/h (1 Bft) 91,30 %
09.02.2023 02:14 1,4 C -5,2 C 2,2 C 57 % 76 % 1036,4 hPa 0,0 l/m 1,6 km/h (1 Bft) W-NW 292 -8,8 C -5,2 C 3,2 km/h (1 Bft) 91,30 %
09.02.2023 02:13 1,5 C -5,3 C 2,2 C 57 % 76 % 1036,4 hPa 0,0 l/m 0,0 km/h (0 Bft) W-NW 292 -8,8 C -5,3 C 1,6 km/h (1 Bft) 91,30 %
09.02.2023 02:12 1,4 C -5,3 C 2,2 C 57 % 76 % 1036,4 hPa 0,0 l/m 0,0 km/h (0 Bft) W-NW 292 -8,8 C -5,3 C 1,6 km/h (1 Bft) 95,65 %
09.02.2023 02:11 1,5 C -5,3 C 2,2 C 57 % 76 % 1036,5 hPa 0,0 l/m 1,6 km/h (1 Bft) W-NW 292 -8,8 C -5,3 C 1,6 km/h (1 Bft) 91,30 %
09.02.2023 02:10 1,5 C -5,2 C 2,2 C 57 % 76 % 1036,4 hPa 0,0 l/m 0,0 km/h (0 Bft) N 0 -8,8 C -5,2 C 0,0 km/h (0 Bft) 91,30 %
09.02.2023 02:09 1,5 C -5,2 C 2,2 C 57 % 76 % 1036,5 hPa 0,0 l/m 0,0 km/h (0 Bft) N 0 -8,8 C -5,2 C 0,0 km/h (0 Bft) 95,65 %
09.02.2023 02:08 1,5 C -5,2 C 2,2 C 57 % 76 % 1036,5 hPa 0,0 l/m 0,0 km/h (0 Bft) W-NW 292 -8,8 C -5,2 C 1,6 km/h (1 Bft) 95,65 %
09.02.2023 02:07 1,4 C -5,2 C 2,2 C 57 % 76 % 1036,5 hPa 0,0 l/m 0,0 km/h (0 Bft) W-NW 292 -8,8 C -5,2 C 1,6 km/h (1 Bft) 91,30 %
09.02.2023 02:06 1,5 C -5,2 C 2,2 C 57 % 76 % 1036,4 hPa 0,0 l/m 1,6 km/h (1 Bft) W-NW 292 -8,8 C -5,2 C 1,6 km/h (1 Bft) 91,30 %
09.02.2023 02:05 1,5 C -5,2 C 2,2 C 57 % 76 % 1036,5 hPa 0,0 l/m 1,6 km/h (1 Bft) W-NW 292 -8,8 C -5,2 C 1,6 km/h (1 Bft) 100,00 %
09.02.2023 02:04 1,5 C -5,2 C 2,2 C 57 % 76 % 1036,4 hPa 0,0 l/m 1,6 km/h (1 Bft) W-NW 292 -8,8 C -5,2 C 1,6 km/h (1 Bft) 91,30 %
09.02.2023 02:03 1,5 C -5,2 C 2,2 C 57 % 76 % 1036,4 hPa 0,0 l/m 1,6 km/h (1 Bft) W-NW 292 -8,8 C -5,2 C 3,2 km/h (1 Bft) 91,30 %
09.02.2023 02:02 1,5 C -5,2 C 2,2 C 57 % 76 % 1036,6 hPa 0,0 l/m 1,6 km/h (1 Bft) W-NW 292 -8,8 C -5,2 C 3,2 km/h (1 Bft) 100,00 %
09.02.2023 02:01 1,6 C -5,1 C 2,2 C 57 % 76 % 1036,6 hPa 0,0 l/m 1,6 km/h (1 Bft) W-NW 292 -8,7 C -5,1 C 4,8 km/h (1 Bft) 91,30 %
09.02.2023 02:00 1,5 C -5,1 C 2,2 C 57 % 76 % 1036,7 hPa 0,0 l/m 3,2 km/h (1 Bft) W-NW 292 -8,7 C -5,1 C 4,8 km/h (1 Bft) 95,65 %
09.02.2023 01:59 1,5 C -5,1 C 2,2 C 57 % 77 % 1036,7 hPa 0,0 l/m 3,2 km/h (1 Bft) W-NW 292 -8,5 C -5,1 C 3,2 km/h (1 Bft) 91,30 %
09.02.2023 01:58 1,6 C -5,1 C 2,2 C 57 % 77 % 1036,7 hPa 0,0 l/m 1,6 km/h (1 Bft) W-NW 292 -8,5 C -5,1 C 3,2 km/h (1 Bft) 95,65 %
09.02.2023 01:57 1,6 C -5,1 C 2,2 C 57 % 76 % 1036,7 hPa 0,0 l/m 1,6 km/h (1 Bft) W 270 -8,7 C -5,1 C 3,2 km/h (1 Bft) 86,96 %
09.02.2023 01:56 1,6 C -5,1 C 2,2 C 57 % 77 % 1036,7 hPa 0,0 l/m 1,6 km/h (1 Bft) W 270 -8,5 C -5,1 C 3,2 km/h (1 Bft) 95,65 %
09.02.2023 01:55 1,6 C -5,1 C 2,2 C 57 % 77 % 1036,7 hPa 0,0 l/m 0,0 km/h (0 Bft) W 270 -8,5 C -5,1 C 1,6 km/h (1 Bft) 91,30 %
09.02.2023 01:54 1,6 C -5,1 C 2,2 C 57 % 77 % 1036,5 hPa 0,0 l/m 1,6 km/h (1 Bft) W 270 -8,5 C -5,1 C 1,6 km/h (1 Bft) 86,96 %
09.02.2023 01:53 1,6 C -5,1 C 2,2 C 57 % 76 % 1036,5 hPa 0,0 l/m 1,6 km/h (1 Bft) W 270 -8,7 C -5,1 C 3,2 km/h (1 Bft) 95,65 %
09.02.2023 01:52 1,6 C -5,1 C 2,2 C 57 % 76 % 1036,7 hPa 0,0 l/m 1,6 km/h (1 Bft) W 270 -8,7 C -5,1 C 3,2 km/h (1 Bft) 91,30 %
09.02.2023 01:51 1,6 C -5,2 C 2,2 C 57 % 76 % 1036,6 hPa 0,0 l/m 1,6 km/h (1 Bft) W 270 -8,8 C -5,2 C 3,2 km/h (1 Bft) 95,65 %
09.02.2023 01:50 1,6 C -5,2 C 2,2 C 57 % 76 % 1036,7 hPa 0,0 l/m 1,6 km/h (1 Bft) W 270 -8,8 C -5,2 C 3,2 km/h (1 Bft) 91,30 %
09.02.2023 01:49 1,6 C -5,2 C 2,2 C 57 % 76 % 1036,7 hPa 0,0 l/m 0,0 km/h (0 Bft) W-SW 247 -8,8 C -5,2 C 1,6 km/h (1 Bft) 95,65 %
09.02.2023 01:48 1,6 C -5,2 C 2,2 C 57 % 77 % 1036,8 hPa 0,0 l/m 1,6 km/h (1 Bft) W-SW 247 -8,6 C -5,2 C 1,6 km/h (1 Bft) 91,30 %
09.02.2023 01:47 1,6 C -5,2 C 2,2 C 57 % 78 % 1036,8 hPa 0,0 l/m 1,6 km/h (1 Bft) W-SW 247 -8,4 C -5,2 C 1,6 km/h (1 Bft) 91,30 %
09.02.2023 01:46 1,6 C -5,3 C 2,2 C 57 % 78 % 1036,6 hPa 0,0 l/m 1,6 km/h (1 Bft) W-SW 247 -8,5 C -5,3 C 3,2 km/h (1 Bft) 82,61 %
09.02.2023 01:45 1,6 C -5,3 C 2,2 C 57 % 78 % 1036,7 hPa 0,0 l/m 4,8 km/h (1 Bft) W-SW 247 -8,5 C -5,3 C 6,4 km/h (2 Bft) 95,65 %
09.02.2023 01:44 1,6 C -5,4 C 2,2 C 57 % 78 % 1036,7 hPa 0,0 l/m 3,2 km/h (1 Bft) W 270 -8,6 C -5,4 C 6,4 km/h (2 Bft) 95,65 %
09.02.2023 01:43 1,6 C -5,4 C 2,2 C 57 % 78 % 1036,8 hPa 0,0 l/m 3,2 km/h (1 Bft) SW 225 -8,6 C -5,4 C 6,4 km/h (2 Bft) 91,30 %
09.02.2023 01:42 1,6 C -5,3 C 2,2 C 57 % 78 % 1036,7 hPa 0,0 l/m 3,2 km/h (1 Bft) W 270 -8,5 C -5,3 C 4,8 km/h (1 Bft) 91,30 %
09.02.2023 01:41 1,6 C -5,3 C 2,2 C 57 % 78 % 1036,8 hPa 0,0 l/m 1,6 km/h (1 Bft) NW 315 -8,5 C -5,3 C 3,2 km/h (1 Bft) 95,65 %
09.02.2023 01:40 1,6 C -5,3 C 2,2 C 57 % 78 % 1036,8 hPa 0,0 l/m 3,2 km/h (1 Bft) NW 315 -8,5 C -5,3 C 4,8 km/h (1 Bft) 95,65 %
09.02.2023 01:39 1,6 C -5,2 C 2,2 C 57 % 78 % 1036,8 hPa 0,0 l/m 1,6 km/h (1 Bft) NW 315 -8,4 C -5,2 C 3,2 km/h (1 Bft) 91,30 %
09.02.2023 01:38 1,6 C -5,2 C 2,2 C 57 % 78 % 1036,9 hPa 0,0 l/m 1,6 km/h (1 Bft) NW 315 -8,4 C -5,2 C 1,6 km/h (1 Bft) 95,65 %
09.02.2023 01:37 1,6 C -5,2 C 2,2 C 57 % 78 % 1036,8 hPa 0,0 l/m 0,0 km/h (0 Bft) NW 315 -8,4 C -5,2 C 1,6 km/h (1 Bft) 91,30 %
09.02.2023 01:36 1,6 C -5,2 C 2,2 C 57 % 78 % 1036,8 hPa 0,0 l/m 0,0 km/h (0 Bft) NW 315 -8,4 C -5,2 C 1,6 km/h (1 Bft) 95,65 %
09.02.2023 01:35 1,6 C -5,1 C 2,2 C 57 % 78 % 1036,8 hPa 0,0 l/m 0,0 km/h (0 Bft) NW 315 -8,3 C -5,1 C 1,6 km/h (1 Bft) 91,30 %
09.02.2023 01:34 1,6 C -5,1 C 2,2 C 57 % 78 % 1036,8 hPa 0,0 l/m 0,0 km/h (0 Bft) N 0 -8,3 C -5,1 C 0,0 km/h (0 Bft) 95,65 %
09.02.2023 01:33 1,6 C -5,1 C 2,2 C 57 % 78 % 1036,9 hPa 0,0 l/m 1,6 km/h (1 Bft) NW 315 -8,3 C -5,1 C 3,2 km/h (1 Bft) 91,30 %
09.02.2023 01:32 1,6 C -5,1 C 2,2 C 57 % 78 % 1036,9 hPa 0,0 l/m 1,6 km/h (1 Bft) NW 315 -8,3 C -5,1 C 4,8 km/h (1 Bft) 100,00 %
09.02.2023 01:31 1,6 C -5,1 C 2,2 C 57 % 78 % 1036,8 hPa 0,0 l/m 3,2 km/h (1 Bft) NW 315 -8,3 C -5,1 C 4,8 km/h (1 Bft) 95,65 %
09.02.2023 01:30 1,6 C -5,1 C 2,2 C 57 % 78 % 1036,8 hPa 0,0 l/m 1,6 km/h (1 Bft) W-NW 292 -8,3 C -5,1 C 3,2 km/h (1 Bft) 86,96 %
09.02.2023 01:29 1,6 C -5,1 C 2,2 C 57 % 78 % 1036,8 hPa 0,0 l/m 3,2 km/h (1 Bft) W-NW 292 -8,3 C -5,1 C 3,2 km/h (1 Bft) 95,65 %
09.02.2023 01:28 1,6 C -5,2 C 2,2 C 57 % 78 % 1036,8 hPa 0,0 l/m 1,6 km/h (1 Bft) SW 225 -8,4 C -5,2 C 3,2 km/h (1 Bft) 91,30 %
09.02.2023 01:27 1,6 C -5,2 C 2,2 C 57 % 78 % 1036,7 hPa 0,0 l/m 3,2 km/h (1 Bft) SW 225 -8,4 C -5,2 C 4,8 km/h (1 Bft) 95,65 %
09.02.2023 01:26 1,7 C -5,2 C 2,2 C 57 % 78 % 1036,9 hPa 0,0 l/m 1,6 km/h (1 Bft) SW 225 -8,4 C -5,2 C 3,2 km/h (1 Bft) 91,30 %
09.02.2023 01:25 1,6 C -5,2 C 2,2 C 57 % 79 % 1036,8 hPa 0,0 l/m 3,2 km/h (1 Bft) W-SW 247 -8,3 C -5,2 C 3,2 km/h (1 Bft) 95,65 %
09.02.2023 01:24 1,7 C -5,2 C 2,2 C 57 % 79 % 1036,8 hPa 0,0 l/m 1,6 km/h (1 Bft) S-SW 202 -8,3 C -5,2 C 3,2 km/h (1 Bft) 86,96 %
09.02.2023 01:23 1,6 C -5,2 C 2,2 C 57 % 79 % 1036,9 hPa 0,0 l/m 0,0 km/h (0 Bft) N 0 -8,3 C -5,2 C 0,0 km/h (0 Bft) 86,96 %
09.02.2023 01:22 1,7 C -5,2 C 2,2 C 57 % 79 % 1036,8 hPa 0,0 l/m 0,0 km/h (0 Bft) S-SW 202 -8,3 C -5,2 C 1,6 km/h (1 Bft) 91,30 %
09.02.2023 01:21 1,7 C -5,2 C 2,2 C 57 % 79 % 1036,9 hPa 0,0 l/m 1,6 km/h (1 Bft) S-SW 202 -8,3 C -5,2 C 1,6 km/h (1 Bft) 91,30 %
09.02.2023 01:20 1,7 C -5,2 C 2,2 C 57 % 79 % 1036,9 hPa 0,0 l/m 1,6 km/h (1 Bft) S-SW 202 -8,3 C -5,2 C 3,2 km/h (1 Bft) 82,61 %
09.02.2023 01:19 1,7 C -5,2 C 2,2 C 57 % 79 % 1036,8 hPa 0,0 l/m 0,0 km/h (0 Bft) S 180 -8,3 C -5,2 C 1,6 km/h (1 Bft) 95,65 %
09.02.2023 01:18 1,7 C -5,2 C 2,2 C 57 % 79 % 1036,9 hPa 0,0 l/m 0,0 km/h (0 Bft) S 180 -8,3 C -5,2 C 1,6 km/h (1 Bft) 91,30 %
09.02.2023 01:17 1,7 C -5,3 C 2,2 C 57 % 79 % 1036,9 hPa 0,0 l/m 1,6 km/h (1 Bft) S 180 -8,4 C -5,3 C 1,6 km/h (1 Bft) 86,96 %
09.02.2023 01:16 1,7 C -5,3 C 2,2 C 57 % 80 % 1036,9 hPa 0,0 l/m 1,6 km/h (1 Bft) S 180 -8,2 C -5,3 C 3,2 km/h (1 Bft) 95,65 %
09.02.2023 01:15 1,7 C -5,3 C 2,2 C 57 % 80 % 1036,9 hPa 0,0 l/m 0,0 km/h (0 Bft) N 0 -8,2 C -5,3 C 0,0 km/h (0 Bft) 86,96 %
09.02.2023 01:14 1,7 C -5,3 C 2,2 C 57 % 80 % 1036,9 hPa 0,0 l/m 0,0 km/h (0 Bft) W-NW 292 -8,2 C -5,3 C 1,6 km/h (1 Bft) 82,61 %
09.02.2023 01:13 1,7 C -5,3 C 2,2 C 57 % 80 % 1036,9 hPa 0,0 l/m 0,0 km/h (0 Bft) W-NW 292 -8,2 C -5,3 C 1,6 km/h (1 Bft) 91,30 %
09.02.2023 01:12 1,7 C -5,3 C 2,2 C 57 % 80 % 1036,9 hPa 0,0 l/m 1,6 km/h (1 Bft) W-NW 292 -8,2 C -5,3 C 3,2 km/h (1 Bft) 86,96 %
09.02.2023 01:11 1,7 C -5,3 C 2,2 C 57 % 81 % 1036,8 hPa 0,0 l/m 1,6 km/h (1 Bft) W-NW 292 -8,0 C -5,3 C 3,2 km/h (1 Bft) 86,96 %
09.02.2023 01:10 1,7 C -5,4 C 2,2 C 57 % 81 % 1036,9 hPa 0,0 l/m 0,0 km/h (0 Bft) N 0 -8,1 C -5,4 C 0,0 km/h (0 Bft) 100,00 %
09.02.2023 01:09 1,7 C -5,4 C 2,2 C 57 % 81 % 1036,9 hPa 0,0 l/m 0,0 km/h (0 Bft) N 0 -8,1 C -5,4 C 0,0 km/h (0 Bft) 82,61 %
09.02.2023 01:08 1,7 C -5,4 C 2,2 C 57 % 81 % 1037,0 hPa 0,0 l/m 0,0 km/h (0 Bft) NW 315 -8,1 C -5,4 C 1,6 km/h (1 Bft) 91,30 %
09.02.2023 01:07 1,7 C -5,5 C 2,2 C 57 % 81 % 1037,0 hPa 0,0 l/m 0,0 km/h (0 Bft) NW 315 -8,2 C -5,5 C 1,6 km/h (1 Bft) 91,30 %
09.02.2023 01:06 1,7 C -5,5 C 2,2 C 57 % 82 % 1036,9 hPa 0,0 l/m 0,0 km/h (0 Bft) NW 315 -8,1 C -5,5 C 1,6 km/h (1 Bft) 91,30 %
09.02.2023 01:05 1,7 C -5,6 C 2,2 C 57 % 83 % 1037,0 hPa 0,0 l/m 0,0 km/h (0 Bft) NW 315 -8,0 C -5,6 C 1,6 km/h (1 Bft) 95,65 %
09.02.2023 01:04 1,7 C -5,6 C 2,2 C 57 % 83 % 1037,0 hPa 0,0 l/m 0,0 km/h (0 Bft) N 0 -8,0 C -5,6 C 0,0 km/h (0 Bft) 95,65 %
09.02.2023 01:03 1,7 C -5,6 C 2,2 C 57 % 82 % 1037,0 hPa 0,0 l/m 1,6 km/h (1 Bft) NW 315 -8,2 C -5,6 C 1,6 km/h (1 Bft) 95,65 %
09.02.2023 01:02 1,7 C -5,6 C 2,8 C 57 % 83 % 1037,0 hPa 0,0 l/m 1,6 km/h (1 Bft) NW 315 -8,0 C -5,6 C 3,2 km/h (1 Bft) 91,30 %
09.02.2023 01:01 1,7 C -5,6 C 2,8 C 57 % 83 % 1037,1 hPa 0,0 l/m 1,6 km/h (1 Bft) NW 315 -8,0 C -5,6 C 1,6 km/h (1 Bft) 100,00 %
09.02.2023 01:00 1,7 C -5,6 C 2,8 C 57 % 83 % 1037,0 hPa 0,0 l/m 1,6 km/h (1 Bft) NW 315 -8,0 C -5,6 C 3,2 km/h (1 Bft) 91,30 %
09.02.2023 00:59 1,7 C -5,6 C 2,2 C 57 % 83 % 1037,1 hPa 0,0 l/m 1,6 km/h (1 Bft) NW 315 -8,0 C -5,6 C 1,6 km/h (1 Bft) 91,30 %
09.02.2023 00:58 1,7 C -5,6 C 2,2 C 57 % 83 % 1037,2 hPa 0,0 l/m 1,6 km/h (1 Bft) NW 315 -8,0 C -5,6 C 1,6 km/h (1 Bft) 95,65 %
09.02.2023 00:57 1,7 C -5,6 C 2,2 C 57 % 83 % 1037,2 hPa 0,0 l/m 1,6 km/h (1 Bft) NW 315 -8,0 C -5,6 C 3,2 km/h (1 Bft) 91,30 %
09.02.2023 00:56 1,7 C -5,6 C 2,2 C 57 % 83 % 1037,2 hPa 0,0 l/m 3,2 km/h (1 Bft) NW 315 -8,0 C -5,6 C 3,2 km/h (1 Bft) 95,65 %
09.02.2023 00:55 1,7 C -5,5 C 2,2 C 57 % 82 % 1037,2 hPa 0,0 l/m 3,2 km/h (1 Bft) NW 315 -8,1 C -5,5 C 4,8 km/h (1 Bft) 91,30 %
09.02.2023 00:54 1,7 C -5,5 C 2,2 C 57 % 82 % 1037,3 hPa 0,0 l/m 4,8 km/h (1 Bft) NW 315 -8,1 C -5,5 C 4,8 km/h (1 Bft) 95,65 %
09.02.2023 00:53 1,7 C -5,5 C 2,8 C 57 % 82 % 1037,1 hPa 0,0 l/m 3,2 km/h (1 Bft) NW 315 -8,1 C -5,5 C 4,8 km/h (1 Bft) 86,96 %
09.02.2023 00:52 1,7 C -5,5 C 2,2 C 57 % 82 % 1037,4 hPa 0,0 l/m 3,2 km/h (1 Bft) NW 315 -8,1 C -5,5 C 3,2 km/h (1 Bft) 100,00 %
09.02.2023 00:51 1,7 C -5,5 C 2,2 C 57 % 82 % 1037,3 hPa 0,0 l/m 3,2 km/h (1 Bft) NW 315 -8,1 C -5,5 C 4,8 km/h (1 Bft) 91,30 %
09.02.2023 00:50 1,7 C -5,4 C 2,2 C 57 % 82 % 1037,4 hPa 0,0 l/m 3,2 km/h (1 Bft) NW 315 -8,0 C -5,4 C 4,8 km/h (1 Bft) 95,65 %
09.02.2023 00:49 1,7 C -5,4 C 2,2 C 57 % 82 % 1037,4 hPa 0,0 l/m 3,2 km/h (1 Bft) NW 315 -8,0 C -5,4 C 3,2 km/h (1 Bft) 91,30 %
09.02.2023 00:48 1,7 C -5,4 C 2,8 C 57 % 82 % 1037,4 hPa 0,0 l/m 1,6 km/h (1 Bft) NW 315 -8,0 C -5,4 C 3,2 km/h (1 Bft) 95,65 %
09.02.2023 00:47 1,7 C -5,4 C 2,8 C 57 % 83 % 1037,4 hPa 0,0 l/m 1,6 km/h (1 Bft) NW 315 -7,8 C -5,4 C 1,6 km/h (1 Bft) 86,96 %
09.02.2023 00:46 1,7 C -5,4 C 2,8 C 57 % 83 % 1037,4 hPa 0,0 l/m 3,2 km/h (1 Bft) NW 315 -7,8 C -5,4 C 4,8 km/h (1 Bft) 95,65 %
09.02.2023 00:45 1,7 C -5,4 C 2,8 C 57 % 83 % 1037,4 hPa 0,0 l/m 3,2 km/h (1 Bft) W-NW 292 -7,8 C -5,4 C 4,8 km/h (1 Bft) 91,30 %
09.02.2023 00:44 1,7 C -5,4 C 2,8 C 57 % 82 % 1037,4 hPa 0,0 l/m 1,6 km/h (1 Bft) W-NW 292 -8,0 C -5,4 C 1,6 km/h (1 Bft) 91,30 %
09.02.2023 00:43 1,7 C -5,4 C 2,8 C 57 % 82 % 1037,3 hPa 0,0 l/m 1,6 km/h (1 Bft) W-NW 292 -8,0 C -5,4 C 3,2 km/h (1 Bft) 95,65 %
09.02.2023 00:42 1,7 C -5,4 C 2,8 C 57 % 82 % 1037,3 hPa 0,0 l/m 0,0 km/h (0 Bft) W-NW 292 -8,0 C -5,4 C 1,6 km/h (1 Bft) 91,30 %
09.02.2023 00:41 1,8 C -5,4 C 2,8 C 57 % 82 % 1037,4 hPa 0,0 l/m 0,0 km/h (0 Bft) W-NW 292 -8,0 C -5,4 C 1,6 km/h (1 Bft) 91,30 %
09.02.2023 00:40 1,8 C -5,4 C 2,8 C 57 % 82 % 1037,4 hPa 0,0 l/m 0,0 km/h (0 Bft) W-NW 292 -8,0 C -5,4 C 1,6 km/h (1 Bft) 95,65 %
09.02.2023 00:39 1,8 C -5,3 C 2,8 C 57 % 81 % 1037,4 hPa 0,0 l/m 3,2 km/h (1 Bft) W-NW 292 -8,0 C -5,3 C 4,8 km/h (1 Bft) 95,65 %
09.02.2023 00:38 1,8 C -5,3 C 2,8 C 57 % 81 % 1037,3 hPa 0,0 l/m 3,2 km/h (1 Bft) NW 315 -8,0 C -5,3 C 4,8 km/h (1 Bft) 91,30 %
09.02.2023 00:37 1,8 C -5,3 C 2,8 C 57 % 81 % 1037,3 hPa 0,0 l/m 3,2 km/h (1 Bft) NW 315 -8,0 C -5,3 C 4,8 km/h (1 Bft) 91,30 %
09.02.2023 00:36 1,8 C -5,3 C 2,8 C 57 % 81 % 1037,4 hPa 0,0 l/m 3,2 km/h (1 Bft) NW 315 -8,0 C -5,3 C 3,2 km/h (1 Bft) 91,30 %
09.02.2023 00:35 1,8 C -5,3 C 2,8 C 57 % 81 % 1037,3 hPa 0,0 l/m 3,2 km/h (1 Bft) NW 315 -8,0 C -5,3 C 3,2 km/h (1 Bft) 95,65 %
09.02.2023 00:34 1,8 C -5,3 C 2,8 C 57 % 80 % 1037,2 hPa 0,0 l/m 3,2 km/h (1 Bft) NW 315 -8,2 C -5,3 C 3,2 km/h (1 Bft) 91,30 %
09.02.2023 00:33 1,8 C -5,3 C 2,8 C 57 % 80 % 1037,3 hPa 0,0 l/m 1,6 km/h (1 Bft) NW 315 -8,2 C -5,3 C 3,2 km/h (1 Bft) 91,30 %
09.02.2023 00:32 1,8 C -5,3 C 2,8 C 57 % 80 % 1037,3 hPa 0,0 l/m 1,6 km/h (1 Bft) NW 315 -8,2 C -5,3 C 3,2 km/h (1 Bft) 95,65 %
09.02.2023 00:31 1,8 C -5,3 C 2,8 C 57 % 81 % 1037,3 hPa 0,0 l/m 1,6 km/h (1 Bft) NW 315 -8,0 C -5,3 C 3,2 km/h (1 Bft) 91,30 %
09.02.2023 00:30 1,8 C -5,2 C 2,8 C 57 % 80 % 1037,1 hPa 0,0 l/m 1,6 km/h (1 Bft) NW 315 -8,1 C -5,2 C 3,2 km/h (1 Bft) 100,00 %
09.02.2023 00:29 1,8 C -5,3 C 2,8 C 57 % 80 % 1037,3 hPa 0,0 l/m 1,6 km/h (1 Bft) NW 315 -8,2 C -5,3 C 3,2 km/h (1 Bft) 91,30 %
09.02.2023 00:28 1,8 C -5,3 C 2,8 C 57 % 80 % 1037,1 hPa 0,0 l/m 1,6 km/h (1 Bft) NW 315 -8,2 C -5,3 C 3,2 km/h (1 Bft) 95,65 %
09.02.2023 00:27 1,8 C -5,3 C 2,8 C 57 % 80 % 1037,4 hPa 0,0 l/m 3,2 km/h (1 Bft) W-NW 292 -8,2 C -5,3 C 3,2 km/h (1 Bft) 95,65 %
09.02.2023 00:26 1,8 C -5,3 C 2,8 C 57 % 81 % 1037,4 hPa 0,0 l/m 1,6 km/h (1 Bft) W-NW 292 -8,0 C -5,3 C 3,2 km/h (1 Bft) 95,65 %
09.02.2023 00:25 1,8 C -5,3 C 2,8 C 57 % 81 % 1037,4 hPa 0,0 l/m 3,2 km/h (1 Bft) W-NW 292 -8,0 C -5,3 C 3,2 km/h (1 Bft) 95,65 %
09.02.2023 00:24 1,8 C -5,3 C 2,8 C 57 % 81 % 1037,4 hPa 0,0 l/m 3,2 km/h (1 Bft) W-NW 292 -8,0 C -5,3 C 3,2 km/h (1 Bft) 95,65 %
09.02.2023 00:23 1,8 C -5,3 C 2,8 C 57 % 81 % 1037,4 hPa 0,0 l/m 0,0 km/h (0 Bft) W-NW 292 -8,0 C -5,3 C 1,6 km/h (1 Bft) 86,96 %
09.02.2023 00:22 1,8 C -5,4 C 2,8 C 57 % 81 % 1037,4 hPa 0,0 l/m 0,0 km/h (0 Bft) N 0 -8,1 C -5,4 C 0,0 km/h (0 Bft) 95,65 %
09.02.2023 00:21 1,8 C -5,4 C 2,8 C 57 % 81 % 1037,3 hPa 0,0 l/m 0,0 km/h (0 Bft) W-NW 292 -8,1 C -5,4 C 1,6 km/h (1 Bft) 95,65 %
09.02.2023 00:20 1,8 C -5,4 C 2,8 C 57 % 81 % 1037,3 hPa 0,0 l/m 1,6 km/h (1 Bft) W-NW 292 -8,1 C -5,4 C 3,2 km/h (1 Bft) 95,65 %
09.02.2023 00:19 1,8 C -5,4 C 2,8 C 57 % 81 % 1037,3 hPa 0,0 l/m 1,6 km/h (1 Bft) W-NW 292 -8,1 C -5,4 C 3,2 km/h (1 Bft) 91,30 %
09.02.2023 00:18 1,8 C -5,4 C 2,8 C 57 % 81 % 1037,4 hPa 0,0 l/m 3,2 km/h (1 Bft) W-NW 292 -8,1 C -5,4 C 3,2 km/h (1 Bft) 100,00 %
09.02.2023 00:17 1,8 C -5,4 C 2,8 C 57 % 82 % 1037,2 hPa 0,0 l/m 1,6 km/h (1 Bft) W-NW 292 -8,0 C -5,4 C 3,2 km/h (1 Bft) 95,65 %
09.02.2023 00:16 1,8 C -5,4 C 2,8 C 57 % 82 % 1037,4 hPa 0,0 l/m 1,6 km/h (1 Bft) W-NW 292 -8,0 C -5,4 C 1,6 km/h (1 Bft) 91,30 %
09.02.2023 00:15 1,8 C -5,4 C 2,8 C 57 % 82 % 1037,4 hPa 0,0 l/m 1,6 km/h (1 Bft) W-NW 292 -8,0 C -5,4 C 1,6 km/h (1 Bft) 86,96 %
09.02.2023 00:14 1,8 C -5,5 C 2,8 C 57 % 81 % 1037,4 hPa 0,0 l/m 1,6 km/h (1 Bft) W-NW 292 -8,2 C -5,5 C 1,6 km/h (1 Bft) 91,30 %
09.02.2023 00:13 1,8 C -5,5 C 2,8 C 57 % 81 % 1037,5 hPa 0,0 l/m 1,6 km/h (1 Bft) W-NW 292 -8,2 C -5,5 C 3,2 km/h (1 Bft) 86,96 %
09.02.2023 00:12 1,8 C -5,5 C 2,8 C 57 % 81 % 1037,4 hPa 0,0 l/m 3,2 km/h (1 Bft) W-NW 292 -8,2 C -5,5 C 3,2 km/h (1 Bft) 95,65 %
09.02.2023 00:11 1,8 C -5,4 C 2,8 C 57 % 81 % 1037,4 hPa 0,0 l/m 1,6 km/h (1 Bft) W-NW 292 -8,1 C -5,4 C 3,2 km/h (1 Bft) 91,30 %
09.02.2023 00:10 1,8 C -5,5 C 2,8 C 57 % 81 % 1037,4 hPa 0,0 l/m 1,6 km/h (1 Bft) W-NW 292 -8,2 C -5,5 C 1,6 km/h (1 Bft) 91,30 %
09.02.2023 00:09 1,8 C -5,5 C 2,8 C 57 % 81 % 1037,4 hPa 0,0 l/m 1,6 km/h (1 Bft) W-NW 292 -8,2 C -5,5 C 3,2 km/h (1 Bft) 95,65 %
09.02.2023 00:08 1,8 C -5,5 C 2,8 C 57 % 81 % 1037,5 hPa 0,0 l/m 1,6 km/h (1 Bft) W-NW 292 -8,2 C -5,5 C 1,6 km/h (1 Bft) 95,65 %
09.02.2023 00:07 1,8 C -5,5 C 2,8 C 57 % 82 % 1037,4 hPa 0,0 l/m 1,6 km/h (1 Bft) W-NW 292 -8,1 C -5,5 C 3,2 km/h (1 Bft) 86,96 %
09.02.2023 00:06 1,8 C -5,5 C 2,8 C 57 % 82 % 1037,4 hPa 0,0 l/m 1,6 km/h (1 Bft) W-NW 292 -8,1 C -5,5 C 1,6 km/h (1 Bft) 95,65 %
09.02.2023 00:05 1,8 C -5,5 C 2,8 C 57 % 82 % 1037,4 hPa 0,0 l/m 1,6 km/h (1 Bft) NW 315 -8,1 C -5,5 C 3,2 km/h (1 Bft) 91,30 %
09.02.2023 00:04 1,8 C -5,5 C 2,8 C 57 % 82 % 1037,5 hPa 0,0 l/m 0,0 km/h (0 Bft) NW 315 -8,1 C -5,5 C 1,6 km/h (1 Bft) 95,65 %
09.02.2023 00:03 1,9 C -5,5 C 2,8 C 57 % 82 % 1037,4 hPa 0,0 l/m 0,0 km/h (0 Bft) NW 315 -8,1 C -5,5 C 1,6 km/h (1 Bft) 95,65 %
09.02.2023 00:02 1,8 C -5,5 C 2,8 C 57 % 82 % 1037,4 hPa 0,0 l/m 1,6 km/h (1 Bft) NW 315 -8,1 C -5,5 C 3,2 km/h (1 Bft) 91,30 %
09.02.2023 00:01 1,8 C -5,5 C 2,8 C 57 % 82 % 1037,4 hPa 0,0 l/m 3,2 km/h (1 Bft) NW 315 -8,1 C -5,5 C 4,8 km/h (1 Bft) 86,96 %
09.02.2023 00:00 1,8 C -5,5 C 2,8 C 57 % 82 % 1037,4 hPa 0,0 l/m 3,2 km/h (1 Bft) NW 315 -8,1 C -5,5 C 4,8 km/h (1 Bft) 95,65 %
_ Min-Zeit 03:10 02:53 02:30 02:52 01:49 03:18 - 00:03 - - 02:32 02:53 00:22 03:26
Minimum _ 1,2 C -6,1 C 1,7 C 56 % 76 % 1035,1 hPa - 0,0 km/h (0 Bft) - - -9,2 C -6,1 C 0,0 km/h (0 Bft) 26,09 %
_ Max-Zeit 00:03 01:29 00:00 00:00 00:45 00:04 00:00 00:54 - - 00:45 01:29 01:43 00:18
Maximum _ 1,9 C -5,1 C 2,8 C 57 % 83 % 1037,5 hPa 0,0 l/m 4,8 km/h
NW (1 Bft)
- - -7,8 C -5,1 C 6,4 km/h
W (2 Bft)
100,00 %
Durchschnitt _ 1,6 C -5,5 C 2,3 C 57 % 80 % 1036,7 hPa #0,0 l/m 2,1 km/h (1 Bft) NW - -8,4 C -5,5 C 3,4 km/h (1 Bft) 92,91 %